This demonstration page uses our WeatherBlox Daily Observations layout. Learn more.

Left ArrowRight Arrow

Hourly Observations for June 2, 2019

Temp ( °F °C ) Dew Point ( °F °C ) Humidity (%) Winds ( mph kmh ) Pressure ( in mb ) Visibility ( mi km ) Precip ( " mm )
12:51 am 00:51 Clear 77 25 33 0.6 20 20 NW 16 26 29.67 1005 10 16 0.00 0.00
1:51 am 01:51 Mostly Clear 75 23.9 36 2.2 24 24 NNW 13 20 29.67 1005 10 16 0.00 0.00
2:51 am 02:51 Clear 72 22.2 36 2.2 27 27 WNW 5 7 29.68 1005 10 16 0.00 0.00
3:51 am 03:51 Clear 69 20.6 35 1.7 29 29 SSW 7 11 29.69 1006 10 16 0.00 0.00
4:51 am 04:51 Clear 63 17.2 35 1.7 35 35 Calm 29.72 1007 10 16 0.00 0.00
5:51 am 05:51 Sunny 66 18.9 35 1.7 32 32 ESE 6 9 29.73 1007 10 16 0.00 0.00
6:51 am 06:51 Sunny 73 22.8 35 1.7 25 25 SSE 3 6 29.74 1007 10 16 0.00 0.00
7:51 am 07:51 Sunny 76 24.4 35 1.7 23 23 SE 6 9 29.75 1008 10 16 0.00 0.00
8:51 am 08:51 Sunny 83 28.3 38 3.3 20 20 E 8 13 29.74 1007 10 16 0.00 0.00
9:51 am 09:51 Sunny 85 29.4 41 5 21 21 S 15 24 29.73 1007 10 16 0.00 0.00
10:51 am 10:51 Sunny 89 31.7 35 1.7 15 15 S 9 15 29.72 1006 10 16 0.00 0.00
11:51 am 11:51 Sunny 92 33.3 33 0.6 12 12 SSW 20 31 29.70 1006 10 16 0.00 0.00
12:51 pm 12:51 Sunny 93 33.9 35 1.7 13 13 S 13 20 29.67 1005 10 16 0.00 0.00
1:51 pm 13:51 Sunny 92 33.3 36 2.2 14 14 S 10 17 29.65 1004 10 16 0.00 0.00
2:51 pm 14:51 Sunny 94 34.4 34 1.1 12 12 SSE 13 20 29.64 1004 10 16 0.00 0.00
3:51 pm 15:51 Sunny 95 35 23 -5 7 7 S 7 11 29.62 1003 10 16 0.00 0.00
4:51 pm 16:51 Sunny 94 34.4 25 -3.9 8 8 SW 12 19 29.61 1003 10 16 0.00 0.00
5:51 pm 17:51 Sunny 93 33.9 30 -1.1 10 10 SSE 9 15 29.60 1003 10 16 0.00 0.00
6:51 pm 18:51 Sunny 91 32.8 30 -1.1 11 11 Calm 29.60 1002 10 16 0.00 0.00
7:51 pm 19:51 Clear 86 30 32 0 14 14 NW 10 17 29.61 1003 10 16 0.00 0.00
8:51 pm 20:51 Clear 83 28.3 34 1.1 17 17 NW 13 20 29.63 1003 10 16 0.00 0.00
9:51 pm 21:51 Clear 80 26.7 35 1.7 20 20 NW 12 19 29.66 1004 10 16 0.00 0.00
10:51 pm 22:51 Clear 76 24.4 35 1.7 23 23 WNW 8 13 29.67 1005 10 16 0.00 0.00
11:51 pm 23:51 Clear 75 23.9 35 1.7 23 23 NW 10 17 29.67 1005 10 16 0.00 0.00

Powered by AerisWeather